Regional Weather Roundup
Issued by NWS Mobile, AL

Home | Current Version | Previous Version | Text Only | Print | Product List | Glossary On
Versions: 1 2 3 4 5 6 7 8 9 10 11 12 13 14 15 16 17 18 19 20 21 22 23 24 25 26 27 28 29 30 31 32 33 34 35 36 37 38 39 40 41 42 43 44 45 46 47 48 49 50
000
ASUS44 KMOB 280313
RWRMOB
REGIONAL WEATHER ROUNDUP
NATIONAL WEATHER SERVICE MOBILE AL
1000 PM CDT THU JUL 27 2017

NOTE: "FAIR" INDICATES FEW OR NO CLOUDS BELOW 12,000 FEET WITH NO
      SIGNIFICANT WEATHER AND/OR OBSTRUCTIONS TO VISIBILITY.

  * THESE STATIONS ARE PART OF THE UNIVERSITY OF SOUTH ALABAMA
    MESONET AND ARE NOT UNDER NWS OR FAA QUALITY CONTROL.

ALZ061>064-280400-
COASTAL ALABAMA

CITY           SKY/WX    TMP DP  RH WIND       PRES   REMARKS
MOBILE REG APT PTCLDY    77  74  90 NW3       29.97S
BROOKLEY FIELD PTCLDY    79  76  90 NW5       29.97S
USA CAMPUS*      N/A     70  68  94 CALM      29.96S
DOG RIVER*     NOT AVBL


CITY           SKY/WX    TMP DP  RH WIND       PRES   REMARKS
GULF SHORES    CLOUDY    78  78 100 CALM      29.96F

$$

ALZ051>060-280400-
INTERIOR SOUTHWEST AND SOUTH CENTRAL ALABAMA

CITY           SKY/WX    TMP DP  RH WIND       PRES   REMARKS
GREENVILLE     CLOUDY    77  71  82 CALM      29.96F
EVERGREEN      CLOUDY    80  75  84 CALM      29.97R
ATMORE*        NOT AVBL
ANDALUSIA/OPP  CLOUDY    79  73  82 SE5       29.97S
ANDALUSIA*       N/A     79  72  78 SE3       29.98S
FLORALA APT    CLOUDY    78  71  79 N7        30.00R
FLORALA*         N/A     79  73  83 CALM      30.67R

$$

FLZ001>006-280400-
WESTERN FLORIDA PANHANDLE

CITY           SKY/WX    TMP DP  RH WIND       PRES   REMARKS
PENSACOLA      PTCLDY    80  75  84 N5        29.95F
NAS PENSACOLA  PTCLDY    77  74  90 CALM      29.94F
MILTON         MOCLDY    74  73  97 CALM      29.96S
WHTNG S FIELD  MOCLDY    78  75  90 CALM      29.96R


CITY           SKY/WX    TMP DP  RH WIND       PRES   REMARKS
JAY*             N/A     75  73  94 S5        29.96S
DUKE FIELD     PTCLDY    78  72  81 NW6       29.96R
CRESTVIEW      PTCLDY    78  72  81 CALM      29.98R
VALPARAISO     PTCLDY    79  73  79 W5        29.95S
DESTIN         CLEAR     84  73  69 N5        29.95S

$$

MSZ076-079-280400-
INTERIOR SOUTHEAST MISSISSIPPI

CITY           SKY/WX    TMP DP  RH WIND       PRES   REMARKS
LEAKESVILLE*   NOT AVBL
AGRICOLA*        N/A     77  73  88 CALM      29.96

$$

MARINE OBSERVATIONS

STATION/POSITION TIME  TEMP    WIND        PRES    WAVE
                       AIR SEA DIR/SP/G            HT/PER
                 (UTC) (F)     (DEG/KT/KT) (MB)    (FT/S)
PASCAGOULA       0248   83     130/  1/  2 1014.0F
PETIT BOIS ISLND 0248   84     180/  3/  3 1014.9F
GRAND BAY        0130   84        CALM     1015.0S
KATRINA CUT      0200   87     270/  5     1014.2
CEDAR POINT      0230   87     270/  7     1014.2F
E DAUPHIN ISLAND 0200   85     270/  4/  5 1014.0S
MIDDLE BAY LIGHT 0200   86     240/  3     1013.9
USCG MOBILE BAY  0248   82 85  190/  3/  4 1015.1S
STATE DOCKS      0248   84 87              1014.2F
MEAHER PARK      0230   84      70/  2     1014.6R
WEEKS BAY        0145   80                   N/A
FORT MORGAN      0248   87     260/  6/  7   N/A
12 S ORANGE BCH  0150   85 87   20/  4/  6 1014.2S   1/ 3
PENSACOLA BAY    0248   81 88              1014.2F
64 S DAUPHIN ISL 0250   86 88  290/  4/  4 1014.8R   1
67 S FORT MORGAN 0230   85        CALM     1014.6S

$$

SELECTED LOCATIONS ACROSS THE REGION

CITY           SKY/WX    TMP DP  RH WIND       PRES   REMARKS
NEW ORLEANS    PTCLDY    83  75  77 SW3       29.96R
GULFPORT       PTCLDY    81  77  88 NW3       29.94S
PASCAGOULA AP  PTCLDY    78  76  93 CALM      29.95S FOG
PASCAGOULA*      N/A     55  55 100 CALM        N/A
HATTIESBURG    CLEAR     78  76  93 CALM      29.97R
LAUREL         CLEAR     77  75  93 W3        29.98S
MERIDIAN       CLEAR     82  78  88 S3        29.96R
JACKSON        PTCLDY    79  74  84 SE3       29.97R
MONTGOMERY     PTCLDY    78  72  81 CALM      29.95S
TROY           PTCLDY    75  73  93 CALM      29.99S
ASHFORD*         N/A     79  72  78 SE3       29.98S
DOTHAN         CLOUDY    80  72  76 W7        30.01S
PANAMA CITY    CLEAR     80  76  87 CALM      29.95S

$$




USA.gov is the U.S. government's official web portal to all federal, state and local government web resources and services.